Time,TemperatureF,DewpointF,PressureIn,WindDirection,WindDirectionDegrees,WindSpeedMPH,WindSpeedGustMPH,Humidity,HourlyPrecipIn,Conditions,Clouds,dailyrainin,SoftwareType,DateUTC
2013-07-29 00:13:00,67.3,63.5,29.91,ESE,106,0.0,4.0,88,0.00,,,0.00,WSDL version 420,2013-07-29 04:13:00,
2013-07-29 00:28:00,67.1,63.4,29.88,SW,221,1.3,2.9,88,-99.99,,,-99.99,WSDL version 420,2013-07-29 04:28:00,
2013-07-29 00:43:00,66.9,63.5,29.91,South,174,0.1,3.1,89,0.00,,,0.00,WSDL version 420,2013-07-29 04:43:00,
2013-07-29 00:58:00,66.6,63.5,29.88,WSW,248,0.6,2.9,90,0.00,,,0.00,WSDL version 420,2013-07-29 04:58:00,
2013-07-29 01:13:00,66.4,63.7,29.91,SW,225,0.0,1.6,91,0.00,,,0.00,WSDL version 420,2013-07-29 05:13:00,
2013-07-29 01:28:00,66.2,63.8,29.91,WSW,248,0.0,2.0,92,0.00,,,0.00,WSDL version 420,2013-07-29 05:28:00,
2013-07-29 01:43:00,66.2,63.9,29.91,SSW,195,0.4,2.2,92,0.00,,,0.00,WSDL version 420,2013-07-29 05:43:00,
2013-07-29 01:58:00,66.2,63.9,29.88,SSE,158,1.3,1.6,92,0.00,,,0.00,WSDL version 420,2013-07-29 05:58:00,
2013-07-29 02:13:00,66.0,64.3,29.91,North,-999,-999.0,-999.0,94,0.00,,,0.00,WSDL version 420,2013-07-29 06:13:00,
2013-07-29 02:28:00,65.8,64.5,29.91,North,-999,-999.0,-999.0,96,0.00,,,0.00,WSDL version 420,2013-07-29 06:28:00,
2013-07-29 02:43:00,65.7,64.4,29.88,North,-999,-999.0,-999.0,97,0.00,,,0.00,WSDL version 420,2013-07-29 06:43:00,
2013-07-29 02:58:00,65.7,64.7,-100.00,North,-999,-999.0,-999.0,97,0.00,,,0.00,WSDL version 420,2013-07-29 06:58:00,
2013-07-29 03:13:00,65.7,65.0,29.91,North,-999,-999.0,-999.0,98,0.00,,,0.00,WSDL version 420,2013-07-29 07:13:00,
2013-07-29 03:28:00,65.5,64.8,29.91,North,-999,-999.0,-999.0,98,0.00,,,0.00,WSDL version 420,2013-07-29 07:28:00,
2013-07-29 03:43:00,65.5,64.8,29.88,North,-999,-999.0,-999.0,98,0.00,,,0.00,WSDL version 420,2013-07-29 07:43:00,
2013-07-29 03:58:00,65.5,65.2,29.91,North,-999,-999.0,-999.0,99,0.00,,,0.00,WSDL version 420,2013-07-29 07:58:00,
2013-07-29 04:13:00,65.4,65.1,29.88,North,-999,-999.0,-999.0,99,0.04,,,0.04,WSDL version 420,2013-07-29 08:13:00,
2013-07-29 04:28:00,65.1,64.8,29.91,North,-999,-999.0,-999.0,99,0.12,,,0.12,WSDL version 420,2013-07-29 08:28:00,
2013-07-29 04:43:00,64.9,64.9,29.91,North,-999,-999.0,-999.0,100,0.12,,,0.12,WSDL version 420,2013-07-29 08:43:00,
2013-07-29 04:58:00,64.9,64.9,29.91,North,-999,-999.0,-999.0,100,0.12,,,0.12,WSDL version 420,2013-07-29 08:58:00,
2013-07-29 05:13:00,64.9,64.9,29.91,North,-999,-999.0,-999.0,100,0.08,,,0.12,WSDL version 420,2013-07-29 09:13:00,
2013-07-29 05:28:00,64.8,64.8,29.91,West,270,1.1,2.7,100,0.00,,,0.12,WSDL version 420,2013-07-29 09:28:00,
2013-07-29 05:43:00,64.6,64.6,29.91,SW,225,1.3,4.3,100,0.00,,,0.12,WSDL version 420,2013-07-29 09:43:00,
2013-07-29 05:58:00,64.4,64.4,29.94,WSW,251,0.5,3.1,100,-99.99,,,-99.99,WSDL version 420,2013-07-29 09:58:00,
2013-07-29 06:13:00,64.5,64.5,29.91,NW,315,1.8,2.9,100,0.00,,,0.12,WSDL version 420,2013-07-29 10:13:00,
2013-07-29 06:28:00,64.4,64.4,29.94,WNW,289,1.9,5.6,100,0.00,,,0.12,WSDL version 420,2013-07-29 10:28:00,
2013-07-29 06:43:00,64.2,64.2,29.94,WNW,283,1.8,3.6,100,0.00,,,0.12,WSDL version 420,2013-07-29 10:43:00,
2013-07-29 07:04:00,63.9,63.9,29.94,WSW,244,0.9,2.0,100,0.00,,,0.12,WSDL version 420,2013-07-29 11:04:00,
2013-07-29 07:20:00,63.5,63.5,29.97,West,270,0.2,2.0,100,0.00,,,0.12,WSDL version 420,2013-07-29 11:20:00,
2013-07-29 07:35:00,63.5,63.5,29.97,West,270,0.0,2.2,100,0.00,,,0.12,WSDL version 420,2013-07-29 11:35:00,
2013-07-29 07:50:00,64.2,64.2,29.97,NW,315,0.0,0.0,100,0.00,,,0.12,WSDL version 420,2013-07-29 11:50:00,
2013-07-29 08:05:00,64.6,64.6,29.97,NNE,26,0.0,1.3,100,-99.99,,,-99.99,WSDL version 420,2013-07-29 12:05:00,
2013-07-29 08:20:00,65.1,65.1,29.97,NW,307,0.8,2.7,100,0.00,,,0.12,WSDL version 420,2013-07-29 12:20:00,
2013-07-29 08:35:00,65.4,65.4,30.00,East,79,1.3,3.1,100,0.00,,,0.12,WSDL version 420,2013-07-29 12:35:00,
2013-07-29 08:50:00,66.2,66.2,29.97,ENE,72,1.7,2.9,100,0.00,,,0.12,WSDL version 420,2013-07-29 12:50:00,
2013-07-29 09:07:00,67.5,67.2,29.97,NNE,27,2.6,4.3,99,0.00,,,0.12,WSDL version 420,2013-07-29 13:07:00,
2013-07-29 09:22:00,68.4,67.0,29.97,NE,45,1.2,4.0,96,0.00,,,0.12,WSDL version 420,2013-07-29 13:22:00,
2013-07-29 09:44:00,69.4,66.6,29.94,NE,53,3.4,5.4,90,0.00,,,0.12,WSDL version 420,2013-07-29 13:44:00,
2013-07-29 09:59:00,70.4,66.4,29.94,East,87,1.4,4.9,87,0.00,,,0.12,WSDL version 420,2013-07-29 13:59:00,
2013-07-29 10:14:00,69.7,63.6,29.97,East,98,1.4,7.2,81,0.00,,,0.12,WSDL version 420,2013-07-29 14:14:00,
2013-07-29 10:29:00,69.4,63.8,29.97,NE,42,1.8,4.0,84,0.00,,,0.12,WSDL version 420,2013-07-29 14:29:00,
2013-07-29 10:46:00,70.6,62.1,29.97,SSE,154,3.3,7.4,76,0.00,,,0.12,WSDL version 420,2013-07-29 14:46:00,
2013-07-29 11:01:00,70.8,61.8,29.97,East,88,4.6,7.4,71,0.00,,,0.12,WSDL version 420,2013-07-29 15:01:00,
2013-07-29 11:16:00,71.1,61.5,29.97,ESE,109,3.2,4.3,71,0.00,,,0.12,WSDL version 420,2013-07-29 15:16:00,
2013-07-29 11:31:00,71.5,61.2,29.94,ENE,59,3.4,6.0,69,0.00,,,0.12,WSDL version 420,2013-07-29 15:31:00,
2013-07-29 11:46:00,71.4,61.1,29.94,ESE,104,2.2,6.3,70,0.00,,,0.12,WSDL version 420,2013-07-29 15:46:00,
2013-07-29 12:01:00,71.1,60.1,29.91,SSE,151,2.2,5.6,69,0.00,,,0.12,WSDL version 420,2013-07-29 16:01:00,
2013-07-29 12:18:00,70.5,61.1,29.91,ENE,77,2.6,4.0,73,0.00,,,0.12,WSDL version 420,2013-07-29 16:18:00,
2013-07-29 12:33:00,70.9,62.2,29.91,ESE,120,2.1,4.0,74,0.00,,,0.12,WSDL version 420,2013-07-29 16:33:00,
2013-07-29 12:48:00,71.8,61.9,29.91,SSE,154,2.2,7.2,70,0.00,,,0.12,WSDL version 420,2013-07-29 16:48:00,
2013-07-29 13:03:00,71.9,60.3,29.91,North,360,2.6,4.7,65,0.00,,,0.12,WSDL version 420,2013-07-29 17:03:00,
2013-07-29 13:18:00,72.4,60.3,29.91,North,354,3.5,7.4,66,0.00,,,0.12,WSDL version 420,2013-07-29 17:18:00,
2013-07-29 13:33:00,73.8,59.2,29.91,South,175,2.8,10.3,60,0.00,,,0.12,WSDL version 420,2013-07-29 17:33:00,
2013-07-29 13:52:00,74.8,60.4,29.91,East,84,1.5,7.4,62,-99.99,,,-99.99,WSDL version 420,2013-07-29 17:52:00,
2013-07-29 14:07:00,73.7,58.2,29.91,ENE,68,3.9,10.3,58,0.00,,,0.12,WSDL version 420,2013-07-29 18:07:00,
2013-07-29 14:22:00,73.7,60.1,29.91,East,86,3.5,13.9,64,0.00,,,0.12,WSDL version 420,2013-07-29 18:22:00,
2013-07-29 14:37:00,73.2,58.0,29.91,ENE,73,4.5,7.4,59,0.00,,,0.12,WSDL version 420,2013-07-29 18:37:00,
2013-07-29 14:54:00,74.3,59.5,29.91,SE,146,2.3,6.5,60,0.00,,,0.12,WSDL version 420,2013-07-29 18:54:00,
2013-07-29 15:09:00,74.6,59.2,29.91,NNE,15,2.2,5.6,59,0.00,,,0.12,WSDL version 420,2013-07-29 19:09:00,
2013-07-29 15:24:00,75.8,57.0,29.91,SSE,153,3.0,6.3,52,0.00,,,0.12,WSDL version 420,2013-07-29 19:24:00,
2013-07-29 15:39:00,76.4,56.3,29.88,East,101,4.5,12.8,50,-99.99,,,-99.99,WSDL version 420,2013-07-29 19:39:00,
2013-07-29 16:00:00,75.6,55.1,29.91,South,173,3.8,5.6,49,0.00,,,0.12,WSDL version 420,2013-07-29 20:00:00,
2013-07-29 16:15:00,74.8,57.0,29.91,North,11,0.3,3.6,55,0.00,,,0.12,WSDL version 420,2013-07-29 20:15:00,
2013-07-29 16:30:00,73.5,55.1,29.91,East,88,2.7,8.7,53,0.00,,,0.12,WSDL version 420,2013-07-29 20:30:00,
2013-07-29 16:45:00,74.1,56.7,29.91,NW,315,2.7,4.9,51,0.00,,,0.12,WSDL version 420,2013-07-29 20:45:00,
2013-07-29 17:02:00,73.4,57.6,29.88,ENE,68,2.8,3.6,57,0.00,,,0.12,WSDL version 420,2013-07-29 21:02:00,
2013-07-29 17:17:00,73.9,55.2,29.88,ENE,64,1.9,4.7,51,0.00,,,0.12,WSDL version 420,2013-07-29 21:17:00,
2013-07-29 17:34:00,72.9,55.8,29.91,ENE,76,2.1,3.1,54,0.00,,,0.12,WSDL version 420,2013-07-29 21:34:00,
2013-07-29 17:49:00,72.9,54.9,29.91,ENE,71,2.8,4.3,49,0.00,,,0.12,WSDL version 420,2013-07-29 21:49:00,
2013-07-29 18:10:00,70.6,57.4,29.91,ESE,113,0.7,1.6,64,0.00,,,0.12,WSDL version 420,2013-07-29 22:10:00,
2013-07-29 18:25:00,69.7,57.3,29.91,NE,45,0.0,2.2,65,0.00,,,0.12,WSDL version 420,2013-07-29 22:25:00,
2013-07-29 18:40:00,68.5,56.8,29.91,WSW,248,0.1,3.1,67,0.00,,,0.12,WSDL version 420,2013-07-29 22:40:00,
2013-07-29 18:55:00,67.6,57.1,29.88,ESE,113,0.0,2.2,69,-99.99,,,-99.99,WSDL version 420,2013-07-29 22:55:00,
2013-07-29 19:10:00,67.4,57.1,29.91,SSE,154,2.0,3.1,69,0.00,,,0.12,WSDL version 420,2013-07-29 23:10:00,
2013-07-29 19:25:00,67.5,56.7,29.94,West,259,2.0,3.4,68,0.00,,,0.12,WSDL version 420,2013-07-29 23:25:00,
2013-07-29 19:40:00,67.2,57.0,29.94,SW,233,1.2,2.5,70,0.00,,,0.12,WSDL version 420,2013-07-29 23:40:00,
2013-07-29 19:55:00,66.5,56.0,29.94,SW,219,1.0,2.9,69,0.00,,,0.12,WSDL version 420,2013-07-29 23:55:00,
2013-07-29 20:10:00,65.7,54.0,29.94,WSW,248,2.5,3.4,66,0.00,,,0.12,WSDL version 420,2013-07-30 00:10:00,
2013-07-29 20:25:00,65.2,53.6,29.94,SW,235,2.4,5.4,67,0.00,,,0.12,WSDL version 420,2013-07-30 00:25:00,
2013-07-29 20:40:00,65.0,54.5,29.97,SW,236,1.8,3.8,69,0.00,,,0.12,WSDL version 420,2013-07-30 00:40:00,
2013-07-29 20:55:00,65.1,55.4,29.97,WSW,244,0.8,5.8,71,0.00,,,0.12,WSDL version 420,2013-07-30 00:55:00,
2013-07-29 21:10:00,65.2,56.0,29.97,WSW,244,1.5,4.7,72,0.00,,,0.12,WSDL version 420,2013-07-30 01:10:00,
2013-07-29 21:25:00,64.8,56.0,29.97,SW,236,1.2,4.0,73,0.00,,,0.12,WSDL version 420,2013-07-30 01:25:00,
2013-07-29 21:40:00,64.8,56.0,29.97,SW,225,0.7,4.3,74,0.00,,,0.12,WSDL version 420,2013-07-30 01:40:00,
2013-07-29 21:55:00,64.3,56.7,29.97,SW,221,0.7,3.4,77,0.00,,,0.12,WSDL version 420,2013-07-30 01:55:00,
2013-07-29 22:10:00,63.5,56.5,29.97,SE,135,2.2,3.6,78,0.00,,,0.12,WSDL version 420,2013-07-30 02:10:00,
2013-07-29 22:25:00,62.3,55.9,29.97,WSW,248,0.0,3.4,80,0.00,,,0.12,WSDL version 420,2013-07-30 02:25:00,
2013-07-29 22:40:00,62.0,56.5,29.97,SSE,158,0.3,2.7,82,0.00,,,0.12,WSDL version 420,2013-07-30 02:40:00,
2013-07-29 22:55:00,61.6,56.6,30.00,South,180,1.7,3.6,83,0.00,,,0.12,WSDL version 420,2013-07-30 02:55:00,
2013-07-29 23:11:00,61.0,56.9,30.00,SW,225,1.6,2.9,87,0.00,,,0.12,WSDL version 420,2013-07-30 03:11:00,
2013-07-29 23:26:00,60.6,57.3,30.00,SSW,203,0.6,2.5,89,0.00,,,0.12,WSDL version 420,2013-07-30 03:26:00,
2013-07-29 23:43:00,60.6,57.7,30.00,SW,225,1.6,2.0,90,0.00,,,0.12,WSDL version 420,2013-07-30 03:43:00,
2013-07-29 23:58:00,60.6,58.0,30.00,SW,225,0.0,0.0,91,0.00,,,0.12,WSDL version 420,2013-07-30 03:58:00,